RH
23 21 21 22 22 22 22 21 20 19 19 19 19 18 20 22 20 20 18 16 10 9 9 8 6 5 4 4 4 4 4 4 5 5 6 6 6 8 10 12 14 14 16 17 20
27 26 25 25 24 23 23 22 21 19 20 21 21 22 22 22 22 20 16 11 9 9 8 7 6 5 4 4 4 4 4 5 5 5 5 5 5 6 7 8 9 10 11 13 15
32 31 29 27 27 26 24 23 21 20 21 22 23 24 23 19 17 15 12 9 8 8 7 6 5 5 5 4 4 4 4 5 5 5 5 4 3 3 3 4 6 7 7 8 9
36 35 33 32 32 30 26 24 22 23 23 25 25 25 22 18 15 13 10 9 9 8 7 6 5 6 5 4 3 3 4 4 4 3 2 3 3 4 3 3 4 4 5 6 6
40 38 37 35 35 32 29 24 26 25 26 27 27 24 20 17 14 11 10 10 9 8 7 6 6 6 4 3 3 4 5 4 3 3 5 8 11 11 11 11 9 5 4 4 5
44 43 40 38 35 33 27 26 29 29 29 28 26 25 20 16 12 9 9 10 9 9 8 6 7 6 4 3 4 5 5 3 5 8 9 9 11 13 15 12 13 15 12 8 4
49 46 44 42 35 33 27 29 31 32 30 29 28 25 20 16 12 10 8 9 10 9 8 7 7 5 4 4 5 6 3 6 9 10 10 11 15 20 17 16 13 14 17 16 10
52 47 44 36 36 32 30 32 34 32 30 31 26 23 18 14 12 12 13 12 10 10 8 7 6 5 4 5 6 5 4 10 13 14 20 17 19 27 21 20 16 16 17 20 16
51 48 42 38 36 33 35 36 33 33 33 32 24 19 17 15 13 11 12 11 11 10 8 7 6 5 5 6 6 4 4 14 18 24 31 31 19 25 28 28 24 20 19 19 21
53 48 46 41 37 38 38 36 36 36 33 28 23 20 19 17 16 15 12 13 12 9 8 7 6 5 6 7 6 3 6 18 28 35 34 41 31 39 39 38 38 31 22 26 23
54 53 50 40 41 41 39 38 38 36 33 29 25 24 20 16 16 16 15 14 13 9 8 7 7 6 8 8 4 3 13 22 34 49 49 44 40 50 46 43 42 42 35 28 28
62 55 44 41 44 42 43 44 42 41 37 31 28 24 19 18 17 18 16 15 13 10 9 8 8 8 9 8 3 5 20 30 42 59 56 47 37 46 39 48 46 46 47 40 30
48 48 46 48 47 48 46 48 44 43 38 30 27 22 19 16 16 14 15 15 14 11 10 9 10 10 11 7 3 8 26 33 47 53 54 40 46 51 53 43 47 40 32 35 32
54 51 50 51 52 49 50 48 48 45 36 29 26 22 20 18 17 17 17 18 14 12 11 11 12 12 12 6 3 10 25 42 56 60 51 46 33 48 68 73 68 54 31 34 29
52 54 53 54 54 52 50 50 50 43 34 35 31 25 20 21 23 21 20 19 14 14 12 12 15 14 11 6 4 9 24 47 62 48 45 23 28 31 36 42 41 38 43 49 49
55 56 55 51 54 52 52 54 50 44 39 42 34 28 24 24 23 23 23 19 15 14 14 14 15 15 11 5 4 8 22 52 47 52 52 28 33 45 41 44 54 52 54 63 56
51 52 52 55 56 56 57 54 47 46 45 41 35 28 24 25 24 24 24 20 16 15 14 17 16 16 11 6 5 7 20 43 59 52 59 59 46 84 76 70 87 90 88 96 93
50 53 55 56 59 60 57 53 50 48 47 44 38 34 30 26 24 27 27 22 18 17 15 19 18 18 11 6 5 6 21 48 82 70 43 65 97 78 83 82 92 92 91 78 80
51 55 58 62 61 61 57 53 51 48 48 44 42 36 30 30 30 31 31 25 20 19 17 20 21 19 12 6 6 7 13 38 65 70 44 54 63 70 76 81 91 96 80 64 50
50 57 65 65 64 59 59 55 53 49 48 46 44 39 33 34 34 37 35 28 22 21 20 20 22 20 13 7 6 6 10 23 55 82 74 55 79 68 71 74 78 86 78 68 93
52 60 68 67 68 64 59 57 55 51 51 51 51 46 39 36 39 38 38 31 24 24 23 22 23 20 14 8 5 5 8 16 40 68 99 73 98 88 79 89 83 99 100 90 97
66 73 75 72 74 65 61 55 53 52 52 54 56 51 43 38 42 41 42 36 26 25 25 25 24 21 16 9 6 5 8 15 24 47 95 97 95 89 93 99 99 100 100 100 100
86 84 77 75 74 68 64 59 53 53 51 55 58 54 46 42 42 46 47 40 28 28 26 28 27 21 17 11 6 5 8 15 16 40 73 93 84 100 100 100 100 100 100 100 100
81 80 77 83 80 72 69 65 58 54 56 56 57 54 47 45 46 52 53 44 32 30 28 27 29 25 19 10 5 4 8 12 18 32 67 97 72 100 100 91 90 86 100 100 100
80 70 74 85 79 77 76 68 67 63 60 56 58 54 47 45 42 46 52 46 34 32 30 28 29 26 22 14 7 3 4 10 16 28 51 94 100 100 100 98 98 99 100 100 95
73 72 84 87 87 79 78 75 69 66 62 60 61 58 52 50 45 46 51 47 37 34 32 30 31 26 22 17 9 3 3 7 17 25 40 94 100 100 100 100 96 100 100 100 100
37 66 80 84 86 82 82 75 68 65 61 67 66 64 60 53 48 52 53 51 38 36 33 34 34 27 23 18 10 4 2 4 12 19 44 86 100 78 98 99 96 99 88 100 95
Wind_Speed
2 1 3 5 8 10 12 13 15 17 18 21 23 25 29 32 34 35 37 37 36 36 39 43 46 49 54 59 63 64 67 68 69 68 68 69 70 75 78 78 78 76 74 70 68
0 2 5 8 10 11 12 14 15 18 19 22 25 28 33 34 36 36 36 37 37 38 41 46 50 53 57 62 67 68 67 68 69 69 69 68 70 72 76 78 81 80 78 75 72
2 3 5 8 10 12 13 15 16 17 19 23 27 31 33 35 36 36 36 38 39 42 47 50 52 58 67 70 72 75 77 76 75 73 72 70 66 67 70 74 81 83 83 81 78
5 5 6 8 11 13 14 16 16 18 21 25 29 32 34 36 36 36 37 41 43 46 50 54 57 67 70 73 78 83 83 80 79 77 69 61 54 54 60 66 73 77 81 83 83
6 7 8 10 12 13 13 13 16 19 23 27 30 32 34 35 34 36 41 42 46 50 55 57 63 70 76 81 85 86 84 82 77 61 50 43 39 38 38 40 45 54 63 76 83
7 8 9 10 13 13 12 14 18 21 25 29 30 33 34 36 38 40 42 45 52 54 57 61 69 73 77 82 85 85 82 73 51 43 38 28 25 24 27 32 37 45 47 52 68
8 9 9 11 12 12 12 15 19 23 26 29 32 33 34 36 39 43 47 52 54 57 62 65 71 75 80 84 85 84 76 50 38 38 33 25 24 30 28 24 28 31 41 45 47
7 8 10 12 11 10 11 16 21 24 27 31 32 32 34 37 41 45 49 52 55 58 62 67 72 77 82 85 85 81 62 34 33 34 34 31 27 33 33 32 30 31 33 39 43
6 8 10 11 10 9 13 18 21 24 30 31 32 32 35 40 45 48 52 56 58 61 64 69 74 79 83 84 83 77 51 31 29 35 37 38 31 34 36 37 38 36 34 34 40
7 8 10 10 9 11 15 19 21 27 31 32 32 35 37 41 45 49 54 57 58 61 66 71 77 80 82 83 80 71 39 28 34 37 39 39 37 41 38 40 42 44 40 36 34
8 10 10 9 10 14 17 21 25 29 30 32 34 37 39 43 46 49 53 56 59 62 68 74 79 80 82 82 76 57 35 33 37 38 40 39 39 43 43 43 41 42 43 43 36
10 11 8 7 11 15 20 23 27 31 32 34 36 37 39 41 45 50 54 59 60 64 69 75 78 80 82 80 68 47 36 36 39 40 42 40 42 43 39 34 32 35 37 40 39
8 6 5 8 12 18 22 25 30 31 33 35 36 37 39 44 49 54 57 60 61 64 69 75 79 81 82 77 63 42 37 37 41 39 38 40 36 36 32 29 27 23 23 28 34
4 5 7 11 16 21 23 27 32 32 34 36 38 40 44 46 50 56 58 60 61 65 71 76 81 80 80 75 63 39 35 39 41 36 35 38 34 33 30 28 24 23 25 28 28
4 7 11 14 19 22 24 29 31 32 32 37 40 43 45 48 52 55 56 59 62 66 71 77 81 80 78 74 60 40 34 37 37 33 32 27 26 29 28 25 23 21 25 30 34
7 12 15 18 20 23 27 30 30 33 35 38 42 44 46 48 52 54 56 59 62 67 72 77 80 79 78 71 61 41 34 35 31 31 26 24 24 26 26 25 24 21 20 23 21
11 14 17 18 21 25 29 29 32 32 35 39 42 44 47 51 53 54 56 58 60 67 72 77 81 79 77 73 59 42 33 33 31 32 25 26 29 33 32 33 32 31 31 32 38
13 16 18 20 24 26 28 30 33 33 36 38 42 46 49 52 55 55 56 58 62 68 74 78 82 81 78 73 62 45 34 38 38 38 25 27 35 38 35 38 38 42 46 41 35
14 16 18 21 24 27 29 31 33 35 37 40 45 47 48 52 56 56 57 59 62 67 74 80 78 81 78 72 62 50 36 35 34 35 31 30 36 41 42 42 41 43 46 39 35
15 19 19 23 26 27 28 31 33 34 37 42 45 48 50 52 55 56 58 59 61 67 74 80 78 81 78 72 62 50 38 36 39 40 39 37 40 43 42 42 41 44 50 48 44
18 21 21 25 27 27 29 31 33 35 38 41 46 49 51 53 55 56 57 58 61 67 73 79 80 79 80 75 65 54 40 36 38 43 44 47 43 47 46 46 45 49 53 57 51
21 22 24 25 26 27 28 31 33 36 39 43 46 51 50 55 54 56 58 57 60 66 72 77 79 79 80 78 68 55 44 35 38 43 42 48 44 49 50 49 49 53 60 60 45
23 24 26 26 26 26 28 30 31 35 40 45 48 50 50 55 55 56 57 58 59 65 73 76 77 79 80 80 70 59 45 37 34 40 42 46 44 47 49 47 47 55 60 59 42
23 24 27 28 25 27 28 30 33 37 41 45 47 49 49 54 54 55 55 57 59 63 70 75 77 76 80 79 75 63 50 40 33 38 42 43 48 46 49 49 49 53 55 55 40
24 25 27 26 24 27 29 31 35 40 42 45 48 49 50 53 54 55 55 55 57 62 67 74 78 75 78 79 76 69 59 40 30 36 40 43 45 47 50 52 52 55 55 50 40
25 26 27 28 27 29 31 35 38 41 43 46 48 51 49 53 54 56 55 54 56 60 65 71 77 77 77 79 78 72 63 45 30 34 37 42 43 45 47 53 56 56 59 48 37
28 29 27 29 31 32 33 35 38 40 44 49 51 51 46 50 53 55 55 53 55 58 63 70 76 79 76 79 77 73 66 50 26 31 35 38 44 46 45 49 55 56 66 43 43
Wind_Direction
107 21 359 353 346 346 349 360 4 4 5 4 359 355 353 350 347 344 341 339 338 336 336 333 331 330 329 326 322 315 310 306 301 297 291 285 278 271 269 266 262 257 252 246 242
353 301 312 322 327 333 338 341 346 355 359 359 353 351 350 348 344 342 341 339 337 336 334 333 332 330 326 324 320 315 311 309 306 301 294 285 278 272 269 267 264 260 256 249 243
294 295 305 316 325 328 332 339 346 350 353 351 349 348 348 347 345 343 339 336 336 336 336 333 331 332 330 328 323 322 318 316 312 305 298 294 288 277 268 263 261 257 253 251 244
299 306 308 313 323 326 329 342 348 348 349 348 347 344 347 344 343 339 337 337 336 335 333 334 333 334 331 329 326 324 321 319 314 309 306 297 286 274 268 263 258 257 253 251 245
295 308 314 315 325 326 331 346 349 347 348 346 343 347 347 344 340 338 338 336 334 336 336 334 336 334 335 332 327 324 325 320 318 312 304 303 300 294 285 274 268 264 260 250 246
297 306 313 320 332 333 342 347 345 347 345 342 346 345 344 341 342 340 339 337 339 336 336 337 336 336 334 330 328 329 328 324 316 313 311 318 317 308 299 296 283 270 265 259 251
300 310 319 327 336 341 342 339 343 343 344 343 344 344 342 341 340 340 342 342 338 338 338 337 336 336 334 332 333 334 328 323 318 318 312 319 319 303 300 309 293 280 263 260 256
302 314 326 334 341 344 338 334 343 342 343 343 348 345 342 341 340 344 344 340 339 338 338 338 338 337 337 335 336 336 330 322 320 315 312 309 307 289 282 282 282 282 275 258 249
306 319 327 341 343 338 335 339 342 343 341 345 347 345 344 342 343 343 343 341 340 339 339 340 340 340 339 338 339 334 330 318 318 312 311 308 299 289 286 276 270 271 271 267 249
312 321 326 343 335 332 337 337 343 342 346 348 346 342 346 343 344 343 343 341 338 339 342 341 343 341 339 341 339 334 329 321 321 320 318 309 306 299 291 279 274 269 265 264 257
310 318 329 335 330 334 334 338 343 345 349 347 345 345 345 344 344 343 343 341 339 342 342 344 344 342 341 344 340 335 329 325 326 324 322 311 308 300 295 287 282 275 269 266 260
305 311 324 325 331 331 336 342 342 345 344 344 343 346 345 345 344 344 345 341 341 342 343 344 344 343 344 346 341 334 331 328 329 327 324 315 312 305 307 310 297 287 276 266 265
309 318 314 327 329 330 338 338 340 344 343 345 346 346 345 345 346 345 343 344 342 343 344 345 346 346 346 347 345 334 332 330 331 333 327 323 327 323 320 315 308 290 279 276 261
347 328 320 321 328 333 335 336 339 342 345 348 348 347 347 346 346 346 345 343 342 346 345 346 348 349 348 348 346 342 333 336 339 338 333 344 353 344 340 334 324 288 275 278 280
337 319 316 320 328 330 333 336 340 342 341 346 349 346 347 348 348 347 344 344 343 348 348 348 349 351 349 349 347 343 337 341 343 349 341 1 8 5 359 350 343 328 305 293 287
318 326 326 328 328 332 334 338 340 336 344 344 345 347 347 347 347 347 346 345 345 348 348 349 350 352 351 350 349 343 339 340 344 351 343 349 348 350 346 340 330 325 320 317 319
318 318 320 326 331 333 335 338 337 340 341 345 346 346 345 346 346 345 346 345 345 347 350 350 350 353 353 352 348 342 336 340 347 352 353 340 337 341 335 330 326 321 314 306 298
311 315 322 327 329 332 335 336 340 342 342 344 343 346 345 345 346 345 347 345 347 349 350 352 351 353 355 353 350 345 339 344 347 347 349 352 339 341 339 334 333 335 333 338 332
304 309 315 321 325 329 332 334 341 342 341 344 345 346 348 346 346 346 348 346 348 351 351 351 353 353 356 354 351 347 340 339 345 347 344 349 334 343 342 342 336 335 337 341 337
300 305 310 317 321 324 326 332 336 341 341 342 344 347 348 346 346 346 347 347 348 351 351 350 355 355 356 357 352 344 338 336 340 345 343 345 344 342 349 344 343 341 336 333 327
294 299 307 312 315 321 323 328 332 336 340 343 344 344 346 345 346 346 348 346 348 350 351 350 354 355 356 357 354 347 341 335 337 339 345 340 354 351 350 348 344 342 338 335 337
294 298 303 308 313 317 320 326 329 332 335 337 341 342 345 345 346 347 347 347 347 350 350 351 354 355 357 357 356 350 343 338 334 337 346 341 357 353 345 344 339 343 340 336 339
295 298 302 304 309 312 317 323 327 330 334 336 339 341 343 346 346 348 347 347 347 351 349 351 356 354 357 357 358 353 346 338 334 335 343 341 355 350 346 345 341 344 339 339 340
301 303 305 302 306 310 313 319 325 328 333 336 340 341 342 345 347 348 347 347 348 350 349 350 356 357 357 358 356 356 347 340 337 337 339 346 353 355 346 348 351 343 340 342 339
301 307 306 304 304 309 311 316 322 326 332 334 338 340 341 345 347 348 348 348 348 348 349 349 354 359 357 358 356 357 354 346 340 332 338 346 350 352 351 349 349 344 342 345 341
296 308 308 302 305 309 311 317 321 324 330 332 336 337 336 344 345 348 350 350 347 348 348 350 352 356 357 357 357 358 356 352 340 330 339 342 349 351 355 350 347 344 347 352 344
291 299 304 304 304 305 310 317 321 324 327 329 333 334 335 341 344 347 349 349 347 348 349 350 352 353 358 357 358 359 359 356 339 330 339 344 349 356 1 349 346 348 352 354 352